User: anonymous   Login
Location: Unspecified
(0.0000°N, 0.0000°E)
Time: 01:05:26
(UTC+00:00)
Language:

FIREBIRD 4 - Orbit

View from above orbital plane
View from above orbital plane
View from above satellite
View from above satellite

Ground track
Ground track

The orbit data is extracted from the following two-line orbital elements,

1 40378U 15003C   21023.82176010  .00002170  00000-0  84200-4 0  9992
2 40378  99.0835 135.2129 0119670 297.4198  61.4901 15.21316694330808
Epoch (UTC): 23 January 2021 19:43:20
Eccentricity: 0.0119670
inclination: 99.0835°
perigee height: 419 km
apogee height: 584 km
right ascension of ascending node: 135.2129°
argument of perigee: 297.4198°
revolutions per day: 15.21316694
mean anomaly at epoch: 61.4901°
orbit number at epoch: 33080

The dashed part of the orbit path shows where the satellite is in the earth's shadow,  

DLR